User: anonymous   Login
Location: Grantsboro
(35.1404°N, 76.8424°W)
Time: 12:42:24
(UTC+00:00)
Language:

SL-16 R/B - Orbit

View from above orbital plane
View from above orbital plane
View from above satellite
View from above satellite

Ground track
Ground track

The orbit data is extracted from the following two-line orbital elements,

1 28353U 04021B   20088.78600115 +.00000003 +00000-0 +26424-4 0  9999
2 28353 070.9997 108.5094 0002658 101.6456 258.4965 14.14233581815730
Epoch (UTC): 28 March 2020 18:51:50
Eccentricity: 0.0002658
inclination: 70.9997°
perigee height: 843 km
apogee height: 847 km
right ascension of ascending node: 108.5094°
argument of perigee: 101.6456°
revolutions per day: 14.14233581
mean anomaly at epoch: 258.4965°
orbit number at epoch: 81573

The dashed part of the orbit path shows where the satellite is in the earth's shadow,  

DLR